Retour au catalogue

KUIPER-00442

ActifCommunicationsLEO
NORAD 68943·PAYLOAD·🇺🇸 United States

Lancé Apr 30, 2026 depuis Guiana Space Centre

Loading…

Prochains Passages (prochaines 24 heures)

TLE

FraisSource: CelesTrak SupGP

Époque: Sep 14, 2026, 20:55 UTC

1 68943C 26098AA  26257.87194444  .00187320  00000+0  24518-1 0  2576
2 68943  51.9024  14.1066 0000686 113.8472 230.2316 14.79749432    15

Suivez KUIPER-00442 en temps réel avec AllMySat

Download on the App Store